Location: *
(49.9853°N, 3.5569°E)
Time: 15:52:47
(UTC+00:00)

Cosmos 2082 Rocket - Pass Details

Date: 22 September 2019
Orbit: 832 x 855 km, 71.0° (Epoch: 21 October)

Event Time Altitude Azimuth Distance (km) Brightness Sun altitude
Rises 23:12:49 0° 332° (NNW) 3,437 6.2 -39.6°
Reaches altitude 10° 23:15:24 10° 339° (NNW) 2,498 5.3 -39.6°
Enters shadow 23:18:01 26° 354° (N) 1,642 4.1 -39.7°
